sat.trackr.live / text

‹ back to catalog

STARLINK-4140

NORAD 53259 · 2022-086T

PAYLOAD ACTIVE UNKNOWN

§ Identity

Operator
Country
US
Launch date
2022-07-24
Launch site
AFETR
Launch vehicle
Mass (kg)
RCS (m²)

Purposes: comms

External: N2YO · Heavens-Above · Gunter

§ Orbital elements

Epoch: 2026-05-25T05:12:17.446176Z

Period
95.44 min
Inclination
53.2147°
Eccentricity
0.0001528
Mean motion
15.08835178 rev/d
Perigee alt
538.7 km
Apogee alt
540.8 km
Semi-major
6,917.9 km
B*
1.7480e-5
RAAN
210.2180°
Arg perigee
90.2170°
Mean anomaly
269.8998°
Rev number
21,262

§ Raw data

STARLINK-41401 53259U 22086T   26145.21686859 -.00000010  00000+0  17480-4 0  99902 53259  53.2147 210.2180 0001528  90.2170 269.8998 15.08835178212627

JSON: /api/v1/satellites/53259 · /tle

For live sub-satellite position, see the globe view (requires WebGL).

§ Visibility from observer

Set your observer location to see the next 7 days of passes ≥ 10°. The values pass through the URL so the page stays shareable.

No JS? Fill the form by hand. The geolocation button needs JavaScript.